Aérodrome :
LOGIN :

S'inscrire | Disclaimer

   EN    FR    IT 

 










Légende :    VFR   VFR Marginal   IFR   IFR Intensif   IFR Très Intensif
Visi : 
Plafond : 
>= 8 km
>= 3000ft
5 à 8 km
1000 à 3000 ft
1500m à 5 km
500 à 1000 ft
800 à 1500m
200 à 500 ft
< 800m
< 200 ft
Symboles :   Orages  Brouillard  Fortes neiges  Fortes précipitations  Vent > 20 kt
SIGMETs :   Divers  Orages  Givrage  Turbulence  Onde Orograph.  Cendres Volcan.







- Altitude de l'aérodrome : 885 ft
- Code IATA : BAS
- Voir les cartes d'approche


LFSB - Bale-Mulhouse

DERNIER METAR :
  • 230330Z 00000KT CAVOK 14/13 Q1017 NOSIG

METARs EXPIRÉS :
  • 230300Z 00000KT CAVOK 15/13 Q1016 NOSIG
  • 230230Z 23001KT CAVOK 15/13 Q1016 NOSIG
  • 230200Z AUTO 20001KT CAVOK 15/14 Q1016 NOSIG
  • 230130Z AUTO 23002KT CAVOK 15/13 Q1016 NOSIG
  • 230100Z AUTO 22002KT CAVOK 15/14 Q1016 NOSIG

TAF TAF LFSB
Valide du 23 à 00h jusqu'au 24 à 00h UTC


222301Z 2300/2324 28003KT CAVOK
PROB40
TEMPO 2311/2317 03010KT FEW050TCU BKN095
Météo : +33 3 89 90 31 11
Pas de NOTAMs connus pour ce terrain.



MET'MAP, la Météo Aéronautique d'un coup d'oeil ! - Copyright ORBIFLY Décembre 2007 - Disclaimer

ORBIFLY MET'MAP TEAM :

Programmation & Développement : Alexandra Zaïnal
Conception & Développement : Baudouin d'Aumeries
Co-Programmation & Développement : Marc-Olivier Méhu
Soutien technique & logistique : Manuel Goepfert

Contact : metmap@orbifly.com




SOURCES & CREDITS :

   NOAA